Location: *
(50.9167°S, 179.4000°W)
Time: 18:05:51
(UTC+00:00)

ATLAS 2AS CENTAUR R/B - Pass Details

Date: 23 June 2024
Orbit: 1019 x 1192 km, 63.7° (Epoch: 23 July)

Event Time Altitude Azimuth Distance (km) Brightness Sun altitude
Exits shadow 17:17:48 25° 205° (SSW) 2,127 4.0 -24.5°
Maximum altitude 17:21:09 37° 159° (SSE) 1,725 3.8 -24.0°
Drops below altitude 10° 17:27:58 10° 93° (E) 3,104 6.2 -22.9°
Sets 17:31:00 0° 84° (E) 4,080 7.2 -22.4°
